Torna al catalogo

STARLINK-5649

AttivoComunicazioniVLEO
NORAD 55354·PAYLOAD·🇺🇸 United States

Lanciato Jan 26, 2023 da Cape Canaveral Space Force Station

Loading…

Prossimi Passaggi (prossime 24 ore)

TLE

AggiornatoSource: CelesTrak SupGP

Epoca: Sep 15, 2026, 01:45 UTC

1 55354C 23013Z   26258.07340278  .00027449  00000+0  99418-3 0  2582
2 55354  43.0009 313.6150 0002080 270.9967 323.3279 15.27564447    14

Traccia STARLINK-5649 in tempo reale con AllMySat

Download on the App Store